TimeCST,TemperatureF,Dew PointF,Humidity,Sea Level PressureIn,VisibilityMPH,Wind Direction,Wind SpeedMPH,Gust SpeedMPH,PrecipitationIn,Events,Conditions,WindDirDegrees,DateUTC
12:53 AM,37.9,27.0,65,29.83,10.0,ESE,11.5,-,N/A,,Clear,110,2013-03-04 06:53:00
1:53 AM,37.9,27.0,65,29.82,10.0,ESE,10.4,-,N/A,,Clear,120,2013-03-04 07:53:00
2:53 AM,39.0,28.0,65,29.77,10.0,ESE,11.5,-,N/A,,Clear,120,2013-03-04 08:53:00
3:53 AM,39.0,28.0,65,29.74,10.0,ESE,8.1,-,N/A,,Clear,110,2013-03-04 09:53:00
4:53 AM,39.9,28.9,65,29.74,10.0,ESE,9.2,-,N/A,,Clear,120,2013-03-04 10:53:00
5:53 AM,41.0,30.0,65,29.74,10.0,SE,10.4,-,N/A,,Clear,130,2013-03-04 11:53:00
6:53 AM,39.9,30.9,70,29.74,10.0,ESE,6.9,-,N/A,,Clear,120,2013-03-04 12:53:00
7:53 AM,42.1,30.9,65,29.73,10.0,SE,10.4,-,N/A,,Clear,130,2013-03-04 13:53:00
8:53 AM,48.0,35.1,61,29.73,10.0,SSE,12.7,-,N/A,,Clear,150,2013-03-04 14:53:00
9:53 AM,52.0,37.0,57,29.72,10.0,SSE,16.1,-,N/A,,Clear,160,2013-03-04 15:53:00
10:53 AM,55.0,39.9,57,29.72,10.0,South,12.7,-,N/A,,Clear,190,2013-03-04 16:53:00
11:53 AM,60.1,41.0,49,29.68,10.0,SSE,16.1,-,N/A,,Clear,160,2013-03-04 17:53:00
12:53 PM,61.0,42.1,50,29.66,10.0,South,13.8,-,N/A,,Clear,170,2013-03-04 18:53:00
1:53 PM,61.0,43.0,52,29.63,10.0,SE,15.0,21.9,N/A,,Clear,140,2013-03-04 19:53:00
2:53 PM,61.0,43.0,52,29.64,10.0,South,13.8,21.9,N/A,,Clear,180,2013-03-04 20:53:00
3:53 PM,59.0,44.1,58,29.66,10.0,South,16.1,20.7,N/A,,Clear,190,2013-03-04 21:53:00
4:53 PM,59.0,44.1,58,29.68,10.0,South,9.2,-,N/A,,Clear,190,2013-03-04 22:53:00
5:53 PM,55.9,45.0,67,29.69,10.0,South,5.8,-,N/A,,Mostly Cloudy,190,2013-03-04 23:53:00
6:53 PM,55.0,45.0,69,29.71,10.0,South,5.8,-,N/A,,Overcast,180,2013-03-05 00:53:00
7:53 PM,51.1,44.1,77,29.73,10.0,SSE,4.6,-,N/A,,Clear,150,2013-03-05 01:53:00
8:53 PM,48.9,44.1,83,29.72,10.0,SE,6.9,-,N/A,,Clear,130,2013-03-05 02:53:00
9:53 PM,46.9,44.1,90,29.73,10.0,SE,6.9,-,N/A,,Clear,130,2013-03-05 03:53:00
10:53 PM,45.0,43.0,93,29.75,10.0,Calm,Calm,-,N/A,,Clear,0,2013-03-05 04:53:00
11:53 PM,45.0,43.0,93,29.75,7.0,NW,6.9,-,N/A,,Clear,320,2013-03-05 05:53:00